Voltar ao catálogo

DMSP 5D-2 F13 DEB

LostSSO
NORAD 42276·DEBRIS·🇺🇸 United States

Lançado Mar 24, 1995 de Vandenberg Space Force Base

Loading…

Próximas Passagens (próximas 24 horas)

TLE

ObsoletoSource: Space-Track

Época: Jul 31, 2026, 23:52 UTC

1 42276U 95015GS  26212.99453186  .00000275  00000-0  23197-3 0  9998
2 42276  99.0848 131.7880 0113453 345.8105  13.9877 13.93300180573864

Acompanhe DMSP 5D-2 F13 DEB em tempo real com AllMySat

Download on the App Store